#timestamp,LO_Frequency,Hit,StdDev 
1561230015.4,286047007.6,P
1561230035.2,286047006.6,N
1561230055.0,286047009.2,Y
1561230055.9,286047009.2,P
1561230075.8,286047001.8,N
1561230095.6,286047002.2,N
1561230115.4,286047001.3,N
1561230135.3,286047002.5,N
1561230155.1,286047002.7,N
1561230175.8,286047000.6,N
1561230195.7,286047001.0,N
1561230215.5,286046999.7,N
1561230235.3,286047001.9,N
1561230255.2,286047000.2,N
1561230275.9,286047002.6,N
1561230295.7,286046999.8,N
1561230315.6,286047000.2,N
1561230335.4,286046999.8,N
1561230355.2,286046999.7,N
1561230375.1,286047002.6,N
1561230376.0,286047002.6,N
1561230395.8,286046999.1,N
1561230415.6,286046996.5,N
1561230435.5,286046997.2,N
1561230455.3,286046995.3,N
1561230475.1,286046997.6,N
1561230495.9,286046999.6,N
1561230515.7,286046997.3,N
1561230535.5,286046999.1,N
1561230555.4,286046998.7,N
1561230575.2,286047000.4,N
1561230595.0,286046999.9,N
1561230595.9,286046999.9,N
1561230615.8,286047002.2,N
1561230635.6,286047002.3,N
1561230655.4,286047004.4,N
1561230675.3,286047004.1,N
1561230695.1,286047003.5,N
1561230696.0,286047003.5,N
1561230715.8,286047004.2,N
1561230735.7,286047002.9,N
1561230755.5,286047004.3,N
1561230775.3,286047003.2,N
1561230795.2,286047003.7,N
1561230815.9,286047005.1,N
1561230835.7,286047007.5,N
1561230855.6,286047005.3,N
1561230875.4,286047007.1,N
1561230895.2,286047006.7,N
1561230915.1,286047006.5,N
1561230916.0,286047006.5,N
1561230935.8,286047010.8,Y
1561230955.6,286047006.2,P
1561230975.5,286047006.6,P
1561230995.3,286047007.7,P
1561231015.1,286047007.9,Y
1561231035.9,286047003.6,P
1561231055.7,286047002.2,N
1561231075.5,286047001.8,N
1561231095.4,286047001.7,N
1561231115.2,286047001.4,N
1561231135.0,286047002.6,N
1561231135.9,286047002.6,N
1561231155.8,286047001.9,N
1561231175.6,286047001.3,N
1561231195.4,286047002.6,N
1561231215.3,286047001.1,N
1561231235.1,286047000.3,N
1561231236.0,286047000.3,N
1561231255.8,286047002.8,N
1561231275.7,286047002.7,N
1561231295.5,286047002.2,N
1561231315.3,286047002.5,N
1561231335.2,286047002.6,N
1561231355.9,286047000.1,N
1561231375.7,286047000.7,N
1561231395.6,286047001.1,N
1561231415.4,286047001.6,N
1561231435.2,286046999.7,N
1561231455.0,286047001.1,N
1561231456.0,286047001.1,N
1561231475.8,286047002.5,N
1561231495.6,286047001.3,N
1561231515.4,286047001.8,N
1561231535.3,286047002.9,N
1561231555.1,286047003.6,Y
1561231575.9,286046999.9,P
1561231595.7,286047000.0,N
1561231615.5,286046999.7,N
1561231635.4,286047000.0,N
1561231655.2,286047001.6,N
1561231675.0,286047003.7,Y
1561231675.9,286047003.7,P
1561231695.8,286047005.8,P
1561231715.6,286047006.7,P
1561231735.4,286047006.9,N
1561231755.3,286047007.5,Y
1561231775.1,286047002.2,P
1561231776.0,286047002.2,N
1561231825.9,286047004.1,E
1561231835.8,286047002.5,N
1561231855.6,286047000.3,P
1561231875.4,286047001.9,N
1561231895.3,286047003.8,Y
1561231915.1,286047000.7,P
1561231935.8,286047002.5,P
1561231955.7,286047004.3,P
1561231975.5,286047001.4,N
1561231995.3,286046999.7,N
1561232015.2,286047002.3,N
1561232035.0,286047002.6,N
1561232035.9,286047002.6,N
1561232055.7,286047000.3,N
1561232075.6,286047002.7,N
1561232095.4,286047000.2,N
1561232115.2,286046999.9,N
1561232135.1,286047011.9,Y
1561232136.0,286047000.3,P
1561232155.8,286046998.2,N
1561232175.6,286047000.7,N
1561232195.5,286046999.7,N
1561232215.3,286047000.6,N
1561232235.1,286047001.8,N
1561232255.9,286047003.7,Y
1561232275.7,286047003.1,P
1561232295.5,286047001.8,N
1561232315.4,286047001.7,N
1561232335.2,286047002.5,N
1561232355.0,286047004.1,Y
1561232355.9,286047004.1,P
1561232375.8,286047000.3,N
1561232395.6,286047000.4,N
1561232415.4,286047002.8,N
1561232435.3,286047004.2,N
1561232455.1,286047004.0,N
1561232475.8,286047003.1,N
1561232495.7,286047002.9,N
1561232515.5,286047007.6,Y
1561232535.3,286047003.7,P
1561232555.2,286047003.3,P
1561232575.0,286047005.3,P
1561232575.9,286047005.3,Y
1561232595.8,286047002.0,P
1561232615.6,286047002.4,N
1561232635.4,286047002.4,P
1561232655.3,286047003.9,Y
1561232675.1,286046997.0,P
1561232676.0,286046997.0,N
1561232695.8,286046996.7,N
1561232715.7,286046997.2,N
1561232735.5,286046997.8,N
1561232755.3,286046996.0,N
1561232775.2,286046993.8,Y
1561232795.9,286046993.4,P
1561232815.7,286046994.4,N
1561232835.6,286046994.3,P
1561232855.4,286046994.3,Y
1561232875.2,286046999.4,P
1561232895.1,286046998.9,N
1561232896.0,286046998.9,N
1561232915.8,286047000.7,N
1561232935.6,286047001.9,N
1561232955.5,286046998.2,N
1561232975.3,286046998.1,N
1561232995.1,286046998.2,N
1561233015.9,286046999.1,N
1561233035.7,286046995.4,N
1561233055.5,286046997.6,N
1561233075.4,286046995.3,N
1561233095.2,286046995.0,N
1561233115.0,286046995.5,N
1561233115.9,286046995.5,N
1561233135.8,286046996.6,N
1561233155.6,286046998.8,N
1561233175.4,286046995.7,N
1561233195.3,286046994.4,N
1561233215.1,286046994.5,N
1561233216.0,286046994.5,N
1561233235.8,286046994.2,N
1561233255.7,286046994.2,N
1561233275.5,286046994.3,N
1561233295.3,286046997.3,N
1561233315.2,286046997.0,N
1561233335.9,286046998.3,N
1561233355.7,286046999.2,N
1561233375.5,286046998.2,N
1561233395.4,286046999.0,N
1561233415.2,286046998.6,N
1561233435.0,286047000.3,N
1561233435.9,286047000.3,N
1561233455.8,286047004.2,N
1561233475.6,286047000.2,N
1561233495.4,286047000.7,N
1561233515.3,286046998.5,N
1561233535.1,286046998.3,N
1561233555.8,286046999.2,N
1561233575.7,286046998.1,N
1561233595.5,286046997.2,N
